Location: Unspecified
(49.2170°N, 0.0000°E)
Time: 00:58:48
(UTC+00:00)

Transit 4A - Pass Details

Date: 22 June 2019
Orbit: 863 x 981 km, 66.8° (Epoch: 18 August)

Event Time Altitude Azimuth Distance (km) Brightness Sun altitude
Rises 17:59:23 0° 317° (NW) 3,689 12.0 17.9°
Reaches altitude 10° 18:02:23 10° 306° (NW) 2,729 12.0 17.5°
Maximum altitude 18:07:29 26° 252° (WSW) 1,798 10.6 16.7°
Drops below altitude 10° 18:12:29 10° 199° (SSW) 2,665 10.4 15.9°
Sets 18:15:23 0° 187° (S) 3,586 10.8 15.4°
